SV1BYK-4 Weather Reports


Display with metric or nautical units.
time (UTC)temp
F
wind
direction
speed
MPH
gust
MPH
rain 1hr
in
rain 24hr
in
rain mn
in
humidity
%
barometer
mb
20260902060611 90 266 2.0 4.0 0.00 0.00 0.00 33 991.8
20260902055711 89 282 2.0 4.0 0.00 0.00 0.00 33 991.7
20260902054811 89 1 0.0 2.0 0.00 0.00 0.00 37 991.8
20260902053011 87 0 0.0 0.0 0.00 0.00 0.00 41 991.7
20260902052111 87 266 0.0 4.0 0.00 0.00 0.00 42 991.8
20260902051211 85 292 0.0 2.0 0.00 0.00 0.00 44 991.8
20260902045411 83 292 0.0 2.0 0.00 0.00 0.00 48 991.8
20260902044511 83 292 0.0 2.0 0.00 0.00 0.00 47 991.8
20260902043611 82 292 1.0 2.0 0.00 0.00 0.00 49 991.7
20260902042711 82 292 0.0 2.0 0.00 0.00 0.00 49 991.7
20260902041811 81 275 0.0 2.0 0.00 0.00 0.00 49 991.8
20260902040911 81 278 0.0 2.0 0.00 0.00 0.00 50 991.7
20260902040011 81 205 0.0 2.0 0.00 0.00 0.00 50 991.6
20260902035111 82 124 0.0 2.0 0.00 0.00 0.00 49 991.6
20260902034211 81 270 0.0 2.0 0.00 0.00 0.00 49 991.6
20260902033311 82 283 1.0 2.0 0.00 0.00 0.00 48 991.5
20260902032411 82 280 2.0 2.0 0.00 0.00 0.00 47 991.5
20260902031511 81 292 0.0 2.0 0.00 0.00 0.00 48 991.4
20260902030611 81 292 0.0 2.0 0.00 0.00 0.00 47 991.3
20260902025711 82 292 0.0 4.0 0.00 0.00 0.00 47 991.2
20260902024811 82 297 2.0 4.0 0.00 0.00 0.00 47 991.1
20260902023911 83 305 0.0 4.0 0.00 0.00 0.00 46 991.1
20260902023011 83 296 3.0 6.0 0.00 0.00 0.00 45 991.1
20260902022111 83 297 4.0 6.0 0.00 0.00 0.00 44 991.1
20260902020311 83 303 3.0 4.0 0.00 0.00 0.00 44 991.1
20260902015411 83 303 2.0 7.0 0.00 0.00 0.00 44 991.2
20260902014511 83 297 3.0 7.0 0.00 0.00 0.00 44 991.3
20260902013611 83 299 0.0 4.0 0.00 0.00 0.00 45 991.2
20260902012711 83 293 2.0 4.0 0.00 0.00 0.00 46 991.2
20260902011811 84 297 2.0 6.0 0.00 0.00 0.00 44 991.1
20260902010911 84 306 2.0 6.0 0.00 0.00 0.00 43 991.2
20260902010011 84 305 2.0 7.0 0.00 0.00 0.00 43 991.0
20260902005111 84 309 4.0 7.0 0.00 0.00 0.00 44 991.0
20260902003311 84 309 1.0 7.0 0.00 0.00 0.00 46 991.0
20260902002411 84 309 6.0 7.0 0.00 0.00 0.00 46 990.9
20260902000611 84 297 3.0 6.0 0.00 0.00 0.00 47 990.9
20260901235711 84 306 4.0 4.0 0.00 0.00 0.00 47 990.9
20260901234811 84 299 2.0 4.0 0.00 0.00 0.00 47 991.0
20260901233911 83 303 2.0 4.0 0.00 0.00 0.00 47 990.9
20260901232111 83 299 2.0 7.0 0.00 0.00 0.00 48 991.0
20260901230311 83 305 3.0 6.0 0.00 0.00 0.00 48 990.9
20260901225411 83 332 0.0 4.0 0.00 0.00 0.00 49 991.0
20260901224511 83 326 2.0 7.0 0.00 0.00 0.00 48 991.0
20260901223611 83 318 2.0 6.0 0.00 0.00 0.00 48 991.0
20260901222711 84 308 1.0 4.0 0.00 0.00 0.00 48 991.0
20260901220911 84 310 1.0 6.0 0.00 0.00 0.00 48 991.0
20260901220011 84 305 2.0 4.0 0.00 0.00 0.00 47 990.9
20260901215111 84 300 0.0 4.0 0.00 0.00 0.00 48 990.8
20260901214211 84 315 1.0 4.0 0.00 0.00 0.00 47 990.8
20260901213311 84 312 2.0 4.0 0.00 0.00 0.00 47 990.9
20260901212411 84 307 2.0 7.0 0.00 0.00 0.00 47 990.9
20260901211511 84 318 0.0 6.0 0.00 0.00 0.00 47 990.8
20260901210611 84 297 1.0 6.0 0.00 0.00 0.00 47 990.8
20260901205711 84 293 1.0 4.0 0.00 0.00 0.00 46 990.7
20260901204811 84 290 1.0 4.0 0.00 0.00 0.00 46 990.8
20260901203911 85 283 1.0 4.0 0.00 0.00 0.00 46 990.7
20260901203011 85 282 1.0 6.0 0.00 0.00 0.00 46 990.8
20260901202111 85 274 0.0 4.0 0.00 0.00 0.00 46 990.8
20260901201211 85 259 1.0 2.0 0.00 0.00 0.00 45 990.9
20260901195411 85 302 0.0 4.0 0.00 0.00 0.00 45 990.9
20260901194511 85 311 1.0 8.0 0.00 0.00 0.00 45 990.8
20260901193611 86 294 2.0 4.0 0.00 0.00 0.00 45 990.8
20260901192711 86 288 1.0 4.0 0.00 0.00 0.00 44 990.8
20260901191811 86 287 1.0 4.0 0.00 0.00 0.00 44 990.8
20260901190911 86 246 2.0 4.0 0.00 0.00 0.00 44 990.8
20260901190011 86 235 1.0 4.0 0.00 0.00 0.00 44 990.7
20260901185111 86 288 1.0 4.0 0.00 0.00 0.00 43 990.6
20260901184211 86 294 0.0 6.0 0.00 0.00 0.00 43 990.7
20260901183311 87 330 2.0 9.0 0.00 0.00 0.00 43 990.7
20260901182411 87 286 2.0 7.0 0.00 0.00 0.00 42 990.6
20260901181511 87 279 2.0 4.0 0.00 0.00 0.00 42 990.6
20260901180611 87 274 2.0 4.0 0.00 0.00 0.00 42 990.5
20260901173911 88 242 2.0 4.0 0.00 0.00 0.00 40 990.3
20260901172111 89 240 2.0 4.0 0.00 0.00 0.00 39 990.1
20260901171211 89 241 1.0 4.0 0.00 0.00 0.00 39 990.1
20260901165411 90 244 2.0 4.0 0.00 0.00 0.00 38 990.0
20260901164511 90 251 3.0 4.0 0.00 0.00 0.00 38 990.1
20260901163611 91 257 2.0 4.0 0.00 0.00 0.00 37 989.9
20260901162711 92 260 2.0 4.0 0.00 0.00 0.00 36 990.0
20260901161811 92 252 2.0 4.0 0.00 0.00 0.00 36 989.9
20260901160911 94 243 2.0 4.0 0.00 0.00 0.00 34 989.9
20260901160011 94 194 0.0 4.0 0.00 0.00 0.00 34 990.0
20260901155111 94 249 2.0 4.0 0.00 0.00 0.00 34 990.1
20260901153311 95 112 2.0 6.0 0.00 0.00 0.00 33 990.0
20260901152411 94 92 2.0 4.0 0.00 0.00 0.00 33 990.1
20260901151511 94 90 0.0 7.0 0.00 0.00 0.00 33 990.1
20260901150611 93 93 3.0 11.0 0.00 0.00 0.00 34 990.1
20260901145711 96 123 2.0 4.0 0.00 0.00 0.00 33 990.0
20260901143011 95 98 4.0 9.0 0.00 0.00 0.00 32 990.2
20260901142111 94 109 2.0 11.0 0.00 0.00 0.00 35 990.4
20260901141211 97 116 2.0 7.0 0.00 0.00 0.00 31 990.5
20260901140311 96 106 4.0 11.0 0.00 0.00 0.00 30 990.4
20260901135411 98 274 2.0 6.0 0.00 0.00 0.00 30 990.6
20260901134511 99 212 2.0 6.0 0.00 0.00 0.00 29 990.5
20260901133611 98 289 2.0 11.0 0.00 0.00 0.00 30 990.5
20260901132711 97 281 4.0 11.0 0.00 0.00 0.00 31 990.4
20260901130911 97 260 2.0 8.0 0.00 0.00 0.00 30 990.5
20260901130011 98 284 2.0 9.0 0.00 0.00 0.00 29 990.5
20260901125111 98 254 2.0 11.0 0.00 0.00 0.00 29 990.6
20260901124211 98 247 3.0 8.0 0.00 0.00 0.00 29 990.7
20260901123311 96 272 4.0 9.0 0.00 0.00 0.00 30 991.0
20260901122411 96 90 3.0 11.0 0.00 0.00 0.00 30 991.0
20260901115711 96 280 4.0 8.0 0.00 0.00 0.00 29 991.0
20260901113911 96 266 3.0 8.0 0.00 0.00 0.00 29 991.2
20260901113011 96 234 4.0 11.0 0.00 0.00 0.00 30 991.1
20260901112111 96 263 3.0 9.0 0.00 0.00 0.00 29 991.1
20260901111211 96 269 4.0 11.0 0.00 0.00 0.00 29 991.1
20260901110311 96 258 3.0 11.0 0.00 0.00 0.00 29 991.2
20260901105411 95 274 3.0 11.0 0.00 0.00 0.00 29 991.2
20260901104511 94 9 5.0 11.0 0.00 0.00 0.00 30 991.2
20260901103611 95 280 4.0 13.0 0.00 0.00 0.00 30 991.3
20260901101811 94 142 4.0 13.0 0.00 0.00 0.00 30 991.4
20260901100911 95 270 3.0 11.0 0.00 0.00 0.00 29 991.5
20260901100011 95 278 4.0 8.0 0.00 0.00 0.00 28 991.5
20260901095111 95 287 2.0 7.0 0.00 0.00 0.00 30 991.5
20260901094211 95 296 2.0 9.0 0.00 0.00 0.00 30 991.6
20260901093311 94 255 4.0 7.0 0.00 0.00 0.00 31 991.6
20260901092411 95 245 2.0 6.0 0.00 0.00 0.00 31 991.6
20260901091511 94 253 2.0 8.0 0.00 0.00 0.00 31 991.6
20260901090611 94 266 4.0 8.0 0.00 0.00 0.00 32 991.6
20260901085711 94 270 3.0 9.0 0.00 0.00 0.00 32 991.6
20260901084811 94 266 3.0 7.0 0.00 0.00 0.00 32 991.7
20260901083911 94 264 2.0 8.0 0.00 0.00 0.00 32 991.6
20260901083011 93 291 3.0 8.0 0.00 0.00 0.00 33 991.7
20260901082111 92 253 2.0 7.0 0.00 0.00 0.00 34 991.6
20260901081211 91 267 2.0 7.0 0.00 0.00 0.00 35 991.6
20260901080311 92 278 2.0 6.0 0.00 0.00 0.00 35 991.6
20260901074511 90 297 2.0 6.0 0.00 0.00 0.00 36 991.7
20260901073611 89 296 2.0 4.0 0.00 0.00 0.00 38 991.5
20260901072711 88 299 1.0 9.0 0.00 0.00 0.00 40 991.5
20260901071810 87 278 2.0 6.0 0.00 0.00 0.00 41 991.5
20260901070911 89 234 0.0 4.0 0.00 0.00 0.00 38 991.5
20260901070011 89 103 1.0 4.0 0.00 0.00 0.00 38 991.5
20260901065111 89 95 2.0 4.0 0.00 0.00 0.00 37 991.4
20260901063311 88 94 1.0 2.0 0.00 0.00 0.00 39 991.4
20260901062411 87 285 0.0 2.0 0.00 0.00 0.00 40 991.5
20260901061511 86 270 1.0 2.0 0.00 0.00 0.00 41 991.6